This demonstration page uses our WeatherBlox Daily Observations layout. Learn more.

Hourly Observations for February 9, 2020

Temp ( °F °C ) Dew Point ( °F °C ) Humidity (%) Winds ( mph kmh ) Pressure ( in mb ) Visibility ( mi km ) Precip ( " mm )
12:15 am 00:15 Cloudy 32 0 28 -2 87 87 Calm 30.37 1029 10 16.0934 0 0
12:35 am 00:35 Cloudy 32 0 27 -3 80 80 Calm 30.37 1029 10 16.0934 0 0
12:55 am 00:55 Cloudy 32 0 27 -3 80 80 NNW 3 6 30.37 1029 10 16.0934 0 0
1:15 am 01:15 Cloudy 32 0 28 -2 87 87 N 3 6 30.37 1029 10 16.0934 0 0
1:35 am 01:35 Mostly Cloudy 32 0 28 -2 87 87 ESE 5 7 30.37 1029 10 16.0934 0 0
1:55 am 01:55 Partly Cloudy 30 -1 27 -3 86 86 NNW 5 7 30.38 1029 10 16.0934 0 0
2:15 am 02:15 Clear 32 0 28 -2 87 87 Calm 30.38 1029 10 16.0934 0 0
2:35 am 02:35 Clear 32 0 27 -3 80 80 Calm 30.38 1029 10 16.0934 0 0
2:55 am 02:55 Clear 28 -2 27 -3 93 93 Calm 30.41 1030 10 16.0934 0 0
3:15 am 03:15 Clear 28 -2 28 -2 100 100 NNW 3 6 30.41 1030 10 16.0934 0 0
3:35 am 03:35 Clear 28 -2 28 -2 100 100 NNW 3 6 30.42 1030 10 16.0934 0 0
3:55 am 03:55 Clear 28 -2 27 -3 93 93 NW 5 7 30.43 1030 10 16.0934 0 0
4:15 am 04:15 Clear 28 -2 27 -3 93 93 NW 3 6 30.44 1031 10 16.0934 0 0
4:35 am 04:35 Clear 27 -3 27 -3 100 100 WNW 3 6 30.45 1031 10 16.0934 0 0
4:55 am 04:55 Clear 28 -2 28 -2 100 100 NW 3 6 30.46 1031 10 16.0934 0 0
5:15 am 05:15 Clear 27 -3 27 -3 100 100 Calm 30.46 1031 10 16.0934 0 0
5:35 am 05:35 Clear 27 -3 27 -3 100 100 W 3 6 30.47 1032 10 16.0934 0 0
5:55 am 05:55 Clear 27 -3 27 -3 100 100 Calm 30.48 1032 10 16.0934 0 0
6:15 am 06:15 Clear 27 -3 27 -3 100 100 NNW 3 6 30.48 1032 10 16.0934 0 0
6:35 am 06:35 Clear 27 -3 25 -4 93 93 Calm 30.49 1032 10 16.0934 0 0
6:55 am 06:55 Clear 25 -4 25 -4 100 100 Calm 30.49 1032 10 16.0934 0 0
7:15 am 07:15 Sunny 27 -3 27 -3 100 100 Calm 30.5 1033 10 16.0934 0 0
7:35 am 07:35 Sunny 27 -3 27 -3 100 100 SSW 3 6 30.51 1033 10 16.0934 0 0
7:55 am 07:55 Sunny 27 -3 27 -3 100 100 S 3 6 30.52 1033 10 16.0934 0 0
8:15 am 08:15 Sunny 28 -2 28 -2 100 100 Calm 30.53 1034 10 16.0934 0 0
8:35 am 08:35 Sunny 30 -1 30 -1 100 100 Calm 30.53 1034 10 16.0934 0 0
8:55 am 08:55 Sunny 32 0 30 -1 93 93 Calm 30.53 1034 10 16.0934 0 0
9:15 am 09:15 Sunny 36 2 30 -1 81 81 Calm 30.54 1034 10 16.0934 0 0
9:35 am 09:35 Sunny 37 3 30 -1 75 75 Calm 30.54 1034 10 16.0934 0 0
9:55 am 09:55 Sunny 39 4 28 -2 65 65 Calm 30.55 1034 10 16.0934 0 0
10:15 am 10:15 Sunny 41 5 27 -3 57 57 NNW 3 6 30.54 1034 10 16.0934 0 0
10:35 am 10:35 Sunny 41 5 27 -3 57 57 Calm 30.54 1034 10 16.0934 0 0
10:55 am 10:55 Sunny 43 6 27 -3 53 53 Calm 30.54 1034 10 16.0934 0 0
11:15 am 11:15 Sunny 43 6 27 -3 53 53 NW 8 13 30.54 1034 10 16.0934 0 0
11:35 am 11:35 Partly Cloudy 43 6 27 -3 53 53 NW 8 13 30.54 1034 10 16.0934 0 0
11:55 am 11:55 Mostly Cloudy 45 7 27 -3 49 49 W 7 11 30.54 1034 10 16.0934 0 0
12:15 pm 12:15 Cloudy 45 7 27 -3 49 49 WNW 9 15 30.52 1034 10 16.0934 0 0
12:35 pm 12:35 Mostly Cloudy 45 7 25 -4 46 46 Calm 30.51 1033 10 16.0934 0 0
12:55 pm 12:55 Mostly Cloudy 46 8 27 -3 46 46 WSW 9 15 30.5 1033 10 16.0934 0 0
1:15 pm 13:15 Partly Cloudy 46 8 27 -3 46 46 WSW 10 17 30.49 1032 10 16.0934 0 0
1:35 pm 13:35 Sunny 46 8 27 -3 46 46 W 7 11 30.47 1032 10 16.0934 0 0
1:55 pm 13:55 Sunny 46 8 27 -3 46 46 SSW 7 11 30.46 1031 10 16.0934 0 0
2:15 pm 14:15 Sunny 46 8 27 -3 46 46 Calm 30.45 1031 10 16.0934 0 0
2:35 pm 14:35 Sunny 48 9 27 -3 43 43 SSE 6 9 30.44 1031 10 16.0934 0 0
2:55 pm 14:55 Sunny 50 10 27 -3 40 40 S 10 17 30.43 1030 10 16.0934 0 0
3:15 pm 15:15 Sunny 48 9 27 -3 43 43 S 15 24 30.43 1030 10 16.0934 0 0
3:35 pm 15:35 Partly Cloudy 50 10 27 -3 40 40 S 12 19 30.43 1030 10 16.0934 0 0
3:55 pm 15:55 Sunny 48 9 28 -2 46 46 S 9 15 30.44 1031 10 16.0934 0 0
4:15 pm 16:15 Sunny 46 8 28 -2 50 50 S 9 15 30.44 1031 10 16.0934 0 0
4:35 pm 16:35 Sunny 46 8 28 -2 50 50 S 9 15 30.44 1031 10 16.0934 0 0
4:55 pm 16:55 Sunny 46 8 28 -2 50 50 SSW 7 11 30.44 1031 10 16.0934 0 0
5:15 pm 17:15 Sunny 46 8 28 -2 50 50 S 7 11 30.43 1030 10 16.0934 0 0
5:35 pm 17:35 Sunny 46 8 28 -2 50 50 S 8 13 30.44 1031 10 16.0934 0 0
5:55 pm 17:55 Clear 46 8 28 -2 50 50 S 5 7 30.43 1030 10 16.0934 0 0
6:15 pm 18:15 Clear 45 7 28 -2 53 53 S 6 9 30.43 1031 10 16.0934 0 0
6:35 pm 18:35 Clear 45 7 28 -2 53 53 S 6 9 30.44 1031 10 16.0934 0 0
6:55 pm 18:55 Clear 45 7 28 -2 53 53 S 5 7 30.44 1031 10 16.0934 0 0
7:15 pm 19:15 Mostly Cloudy 45 7 28 -2 53 53 SSE 12 19 30.43 1031 10 16.0934 0 0
7:35 pm 19:35 Cloudy 45 7 28 -2 53 53 SSE 9 15 30.42 1030 10 16.0934 0 0
7:55 pm 19:55 Cloudy 45 7 28 -2 53 53 SSE 10 17 30.41 1030 10 16.0934 0 0
8:15 pm 20:15 Mostly Cloudy 45 7 30 -1 57 57 SSE 10 17 30.41 1030 10 16.0934 0 0
8:35 pm 20:35 Cloudy 45 7 30 -1 57 57 SSE 13 20 30.4 1029 10 16.0934 0 0
8:55 pm 20:55 Cloudy 43 6 30 -1 61 61 S 15 24 30.4 1030 10 16.0934 0 0
9:15 pm 21:15 Cloudy 43 6 30 -1 61 61 S 13 20 30.39 1029 10 16.0934 0 0
9:35 pm 21:35 Cloudy 43 6 30 -1 61 61 SSE 9 15 30.38 1029 10 16.0934 0 0
9:55 pm 21:55 Mostly Cloudy 43 6 32 0 66 66 S 16 26 30.36 1028 10 16.0934 0 0
10:15 pm 22:15 Clear 43 6 32 0 66 66 S 13 20 30.36 1028 10 16.0934 0 0
10:35 pm 22:35 Clear 41 5 32 0 70 70 undefined N/A 30.35 1028 10 16.0934 0 0
10:55 pm 22:55 Clear 41 5 32 0 70 70 S 13 20 30.34 1028 10 16.0934 0 0
11:15 pm 23:15 Clear 41 5 32 0 70 70 S 14 22 30.33 1027 10 16.0934 0 0
11:35 pm 23:35 Clear 41 5 32 0 70 70 S 15 24 30.32 1027 10 16.0934 0 0
11:55 pm 23:55 Partly Cloudy 41 5 32 0 70 70 S 12 19 30.31 1027 10 16.0934 0 0

Powered by AerisWeather